| time (UTC) | temp F | wind direction | speed MPH | gust MPH | rain 1hr in | rain 24hr in | rain mn in | humidity % | barometer mb |
| 20260503015137 | 41 | 310 | 3.0 | 8.0 | 0.00 | 0.02 | 0.00 | 77 | 1014.6 |
| 20260503014637 | 41 | 327 | 2.0 | 8.0 | 0.00 | 0.03 | 0.00 | 77 | 1014.7 |
| 20260503014357 | 41 | 301 | 3.0 | 8.0 | 0.00 | 0.03 | 0.00 | 76 | 1014.6 |
| 20260503013638 | 41 | 302 | 3.0 | 8.0 | 0.00 | 0.03 | 0.00 | 76 | 1014.7 |
| 20260503013136 | 41 | 300 | 2.0 | 7.0 | 0.00 | 0.03 | 0.00 | 76 | 1014.6 |
| 20260503012637 | 41 | 298 | 2.0 | 8.0 | 0.00 | 0.04 | 0.00 | 75 | 1014.6 |
| 20260503012137 | 41 | 305 | 3.0 | 8.0 | 0.00 | 0.04 | 0.00 | 75 | 1014.7 |
| 20260503011900 | 41 | 302 | 3.0 | 8.0 | 0.00 | 0.05 | 0.00 | 75 | 1014.6 |
| 20260503011137 | 41 | 304 | 3.0 | 8.0 | 0.00 | 0.06 | 0.00 | 75 | 1014.6 |
| 20260503010637 | 41 | 300 | 2.0 | 5.0 | 0.00 | 0.06 | 0.00 | 74 | 1014.6 |
| 20260503010137 | 41 | 300 | 2.0 | 5.0 | 0.00 | 0.07 | 0.00 | 74 | 1014.6 |
| 20260503005637 | 41 | 300 | 2.0 | 7.0 | 0.00 | 0.07 | 0.00 | 74 | 1014.6 |
| 20260503005137 | 41 | 300 | 3.0 | 7.0 | 0.00 | 0.07 | 0.00 | 73 | 1014.5 |
| 20260503004637 | 41 | 298 | 2.0 | 8.0 | 0.00 | 0.07 | 0.00 | 73 | 1014.4 |
| 20260503004137 | 41 | 296 | 2.0 | 8.0 | 0.00 | 0.07 | 0.00 | 73 | 1014.4 |
| 20260503003901 | 41 | 296 | 2.0 | 7.0 | 0.00 | 0.08 | 0.00 | 73 | 1014.4 |
| 20260503003137 | 41 | 294 | 3.0 | 8.0 | 0.00 | 0.08 | 0.00 | 73 | 1014.2 |
| 20260503002855 | 41 | 294 | 3.0 | 8.0 | 0.00 | 0.08 | 0.00 | 73 | 1014.3 |
| 20260503002358 | 41 | 296 | 2.0 | 6.0 | 0.00 | 0.09 | 0.00 | 73 | 1014.3 |
| 20260503001637 | 41 | 309 | 2.0 | 6.0 | 0.00 | 0.09 | 0.00 | 73 | 1014.2 |
| 20260503001358 | 41 | 294 | 2.0 | 7.0 | 0.00 | 0.09 | 0.00 | 73 | 1014.3 |
| 20260503000636 | 41 | 304 | 2.0 | 7.0 | 0.00 | 0.09 | 0.00 | 72 | 1014.3 |
| 20260503000400 | 42 | 297 | 2.0 | 5.0 | 0.00 | 0.09 | 0.00 | 72 | 1014.2 |
| 20260502235637 | 42 | 295 | 2.0 | 7.0 | 0.00 | 0.09 | 0.00 | 72 | 1014.2 |
| 20260502235359 | 42 | 300 | 2.0 | 7.0 | 0.00 | 0.10 | 0.00 | 72 | 1014.1 |
| 20260502234637 | 42 | 298 | 2.0 | 5.0 | 0.00 | 0.10 | 0.00 | 71 | 1014.0 |
| 20260502234136 | 42 | 298 | 2.0 | 4.0 | 0.00 | 0.10 | 0.00 | 71 | 1014.1 |
| 20260502233636 | 42 | 297 | 2.0 | 5.0 | 0.00 | 0.11 | 0.00 | 71 | 1014.1 |
| 20260502233136 | 42 | 297 | 3.0 | 5.0 | 0.00 | 0.11 | 0.00 | 71 | 1014.0 |
| 20260502232637 | 42 | 305 | 3.0 | 7.0 | 0.00 | 0.12 | 0.00 | 70 | 1014.0 |
| 20260502232137 | 42 | 303 | 2.0 | 7.0 | 0.00 | 0.12 | 0.00 | 70 | 1014.1 |
| 20260502231636 | 42 | 294 | 2.0 | 5.0 | 0.00 | 0.12 | 0.00 | 69 | 1014.0 |
| 20260502231138 | 42 | 300 | 2.0 | 5.0 | 0.00 | 0.12 | 0.00 | 69 | 1014.0 |
| 20260502230637 | 42 | 299 | 2.0 | 7.0 | 0.00 | 0.13 | 0.00 | 69 | 1013.9 |
| 20260502230137 | 42 | 299 | 2.0 | 7.0 | 0.00 | 0.13 | 0.00 | 69 | 1014.1 |
| 20260502225637 | 42 | 311 | 2.0 | 7.0 | 0.00 | 0.13 | 0.00 | 68 | 1014.1 |
| 20260502225137 | 42 | 312 | 2.0 | 7.0 | 0.00 | 0.14 | 0.00 | 68 | 1014.0 |
| 20260502224636 | 42 | 329 | 3.0 | 9.0 | 0.00 | 0.14 | 0.00 | 68 | 1014.1 |
| 20260502224405 | 42 | 329 | 4.0 | 11.0 | 0.00 | 0.14 | 0.00 | 67 | 1014.0 |
| 20260502223900 | 43 | 294 | 4.0 | 11.0 | 0.00 | 0.14 | 0.00 | 67 | 1014.0 |
| 20260502223136 | 43 | 9 | 3.0 | 9.0 | 0.00 | 0.15 | 0.00 | 68 | 1013.9 |
| 20260502222636 | 43 | 355 | 3.0 | 9.0 | 0.00 | 0.15 | 0.00 | 68 | 1013.9 |
| 20260502222136 | 43 | 302 | 4.0 | 11.0 | 0.00 | 0.15 | 0.00 | 68 | 1013.9 |
| 20260502221637 | 43 | 338 | 5.0 | 11.0 | 0.00 | 0.15 | 0.00 | 68 | 1013.9 |
| 20260502221136 | 43 | 298 | 5.0 | 11.0 | 0.00 | 0.15 | 0.00 | 68 | 1013.9 |
| 20260502220856 | 44 | 274 | 6.0 | 14.0 | 0.00 | 0.15 | 0.00 | 69 | 1013.9 |
| 20260502220137 | 44 | 348 | 7.0 | 16.0 | 0.00 | 0.15 | 0.00 | 69 | 1013.9 |
| 20260502215900 | 44 | 337 | 5.0 | 16.0 | 0.00 | 0.15 | 0.00 | 69 | 1013.9 |
| 20260502215137 | 44 | 34 | 5.0 | 11.0 | 0.00 | 0.15 | 0.00 | 69 | 1013.9 |
| 20260502214636 | 44 | 310 | 6.0 | 11.0 | 0.00 | 0.15 | 0.00 | 69 | 1013.8 |
| 20260502214137 | 44 | 355 | 5.0 | 12.0 | 0.00 | 0.15 | 0.00 | 69 | 1013.8 |
| 20260502213637 | 44 | 17 | 5.0 | 12.0 | 0.00 | 0.15 | 0.00 | 70 | 1013.8 |
| 20260502213137 | 44 | 341 | 5.0 | 12.0 | 0.00 | 0.15 | 0.00 | 70 | 1013.8 |
| 20260502212637 | 44 | 313 | 4.0 | 12.0 | 0.00 | 0.15 | 0.00 | 71 | 1013.7 |
| 20260502212136 | 44 | 323 | 4.0 | 10.0 | 0.00 | 0.15 | 0.00 | 72 | 1013.7 |
| 20260502211637 | 44 | 5 | 4.0 | 12.0 | 0.00 | 0.15 | 0.00 | 72 | 1013.7 |
| 20260502211136 | 44 | 5 | 5.0 | 12.0 | 0.00 | 0.15 | 0.00 | 71 | 1013.7 |
| 20260502210635 | 44 | 273 | 6.0 | 13.0 | 0.00 | 0.15 | 0.00 | 70 | 1013.7 |
| 20260502210134 | 45 | 315 | 6.0 | 13.0 | 0.00 | 0.15 | 0.00 | 69 | 1013.6 |
| 20260502205632 | 45 | 0 | 5.0 | 13.0 | 0.00 | 0.15 | 0.00 | 68 | 1013.7 |
| 20260502205132 | 45 | 300 | 4.0 | 13.0 | 0.00 | 0.15 | 0.00 | 65 | 1013.6 |
| 20260502204632 | 45 | 324 | 3.0 | 9.0 | 0.00 | 0.15 | 0.00 | 65 | 1013.5 |
| 20260502204132 | 45 | 349 | 4.0 | 12.0 | 0.00 | 0.15 | 0.00 | 65 | 1013.6 |
| 20260502203633 | 45 | 348 | 4.0 | 12.0 | 0.00 | 0.15 | 0.00 | 64 | 1013.5 |
| 20260502203132 | 45 | 309 | 3.0 | 8.0 | 0.00 | 0.15 | 0.00 | 65 | 1013.5 |
| 20260502202632 | 45 | 325 | 3.0 | 8.0 | 0.00 | 0.15 | 0.00 | 66 | 1013.5 |
| 20260502202133 | 45 | 344 | 3.0 | 5.0 | 0.00 | 0.15 | 0.00 | 65 | 1013.6 |
| 20260502201852 | 45 | 5 | 4.0 | 9.0 | 0.00 | 0.15 | 0.00 | 66 | 1013.6 |
| 20260502201132 | 45 | 0 | 5.0 | 13.0 | 0.00 | 0.15 | 0.00 | 65 | 1013.7 |
| 20260502200632 | 45 | 347 | 5.0 | 13.0 | 0.00 | 0.15 | 0.00 | 65 | 1013.8 |
| 20260502195632 | 46 | 23 | 4.0 | 9.0 | 0.00 | 0.15 | 0.00 | 64 | 1013.7 |
| 20260502195132 | 46 | 338 | 4.0 | 8.0 | 0.00 | 0.15 | 0.00 | 66 | 1013.7 |
| 20260502194632 | 46 | 343 | 5.0 | 13.0 | 0.00 | 0.15 | 0.00 | 66 | 1013.7 |
| 20260502194350 | 46 | 39 | 5.0 | 13.0 | 0.00 | 0.15 | 0.00 | 66 | 1013.8 |
| 20260502193632 | 45 | 298 | 4.0 | 9.0 | 0.00 | 0.15 | 0.00 | 63 | 1013.8 |
| 20260502192633 | 46 | 34 | 5.0 | 10.0 | 0.00 | 0.15 | 0.00 | 63 | 1013.9 |
| 20260502192132 | 46 | 355 | 4.0 | 12.0 | 0.00 | 0.15 | 0.00 | 63 | 1014.0 |
| 20260502191632 | 46 | 340 | 3.0 | 12.0 | 0.00 | 0.15 | 0.00 | 63 | 1013.9 |
| 20260502191132 | 46 | 11 | 2.0 | 7.0 | 0.00 | 0.15 | 0.00 | 63 | 1013.9 |
| 20260502190633 | 46 | 0 | 4.0 | 10.0 | 0.00 | 0.15 | 0.00 | 63 | 1013.9 |
| 20260502190132 | 46 | 344 | 5.0 | 12.0 | 0.00 | 0.15 | 0.00 | 63 | 1013.9 |
| 20260502185632 | 46 | 341 | 5.0 | 12.0 | 0.00 | 0.15 | 0.00 | 64 | 1013.9 |
| 20260502185132 | 46 | 344 | 5.0 | 12.0 | 0.00 | 0.15 | 0.00 | 65 | 1013.9 |
| 20260502184633 | 46 | 328 | 4.0 | 12.0 | 0.00 | 0.15 | 0.00 | 66 | 1013.8 |
| 20260502184132 | 46 | 339 | 3.0 | 8.0 | 0.00 | 0.15 | 0.00 | 64 | 1013.9 |
| 20260502183632 | 46 | 301 | 3.0 | 8.0 | 0.00 | 0.15 | 0.00 | 64 | 1013.9 |
| 20260502183350 | 46 | 269 | 4.0 | 8.0 | 0.00 | 0.15 | 0.00 | 63 | 1013.9 |
| 20260502182855 | 46 | 305 | 4.0 | 8.0 | 0.00 | 0.15 | 0.00 | 62 | 1013.9 |
| 20260502182132 | 46 | 355 | 4.0 | 10.0 | 0.00 | 0.15 | 0.00 | 62 | 1013.9 |
| 20260502181632 | 46 | 288 | 4.0 | 10.0 | 0.00 | 0.15 | 0.00 | 62 | 1013.9 |
| 20260502181133 | 46 | 300 | 4.0 | 11.0 | 0.00 | 0.15 | 0.00 | 60 | 1013.8 |
| 20260502180632 | 46 | 301 | 4.0 | 11.0 | 0.00 | 0.15 | 0.00 | 58 | 1013.8 |
| 20260502180132 | 46 | 309 | 4.0 | 10.0 | 0.00 | 0.15 | 0.00 | 58 | 1013.7 |
| 20260502170359 | 46 | 274 | 3.0 | 9.0 | 0.00 | 0.15 | 0.00 | 60 | 1013.7 |
| 20260502164129 | 46 | 244 | 3.0 | 10.0 | 0.00 | 0.15 | 0.00 | 63 | 1013.8 |
| 20260502163629 | 45 | 294 | 3.0 | 10.0 | 0.00 | 0.15 | 0.00 | 62 | 1013.9 |
| 20260502163129 | 45 | 269 | 4.0 | 13.0 | 0.00 | 0.15 | 0.00 | 60 | 1014.0 |
| 20260502162630 | 45 | 297 | 5.0 | 13.0 | 0.00 | 0.15 | 0.00 | 60 | 1013.9 |
| 20260502162128 | 45 | 272 | 4.0 | 12.0 | 0.00 | 0.15 | 0.00 | 59 | 1014.1 |
| 20260502161629 | 45 | 294 | 4.0 | 10.0 | 0.00 | 0.15 | 0.00 | 59 | 1014.0 |
| 20260502161129 | 45 | 334 | 6.0 | 14.0 | 0.00 | 0.15 | 0.00 | 59 | 1014.0 |
| 20260502160629 | 45 | 346 | 5.0 | 14.0 | 0.00 | 0.15 | 0.00 | 59 | 1014.0 |
| 20260502160128 | 46 | 293 | 4.0 | 13.0 | 0.00 | 0.15 | 0.00 | 59 | 1014.0 |
| 20260502152128 | 46 | 290 | 5.0 | 14.0 | 0.00 | 0.15 | 0.00 | 62 | 1013.9 |
| 20260502151852 | 46 | 284 | 5.0 | 16.0 | 0.00 | 0.15 | 0.00 | 66 | 1014.0 |
| 20260502151129 | 46 | 295 | 5.0 | 16.0 | 0.00 | 0.15 | 0.00 | 66 | 1014.1 |
| 20260502150629 | 46 | 258 | 6.0 | 15.0 | 0.00 | 0.15 | 0.00 | 65 | 1014.1 |
| 20260502150129 | 46 | 355 | 7.0 | 16.0 | 0.00 | 0.15 | 0.00 | 65 | 1014.2 |
| 20260502140129 | 43 | 236 | 4.0 | 13.0 | 0.00 | 0.15 | 0.00 | 76 | 1014.6 |
| 20260502130629 | 41 | 292 | 5.0 | 13.0 | 0.00 | 0.15 | 0.00 | 84 | 1015.0 |
| 20260502130128 | 41 | 297 | 6.0 | 13.0 | 0.00 | 0.15 | 0.00 | 86 | 1015.1 |
| 20260502123351 | 38 | 276 | 6.0 | 12.0 | 0.00 | 0.15 | 0.00 | 91 | 1014.9 |
| 20260502122628 | 38 | 305 | 6.0 | 14.0 | 0.00 | 0.15 | 0.00 | 91 | 1014.9 |
| 20260502122128 | 38 | 294 | 5.0 | 14.0 | 0.00 | 0.15 | 0.00 | 91 | 1015.0 |
| 20260502121629 | 38 | 275 | 4.0 | 13.0 | 0.00 | 0.15 | 0.00 | 92 | 1014.9 |
| 20260502121129 | 38 | 288 | 6.0 | 13.0 | 0.00 | 0.15 | 0.00 | 92 | 1014.9 |
| 20260502120855 | 38 | 313 | 7.0 | 13.0 | 0.00 | 0.15 | 0.00 | 93 | 1014.9 |
| 20260502120129 | 38 | 313 | 6.0 | 12.0 | 0.00 | 0.15 | 0.00 | 93 | 1015.0 |
| 20260502115129 | 37 | 265 | 4.0 | 12.0 | 0.00 | 0.15 | 0.00 | 94 | 1015.0 |
| 20260502114629 | 37 | 294 | 5.0 | 12.0 | 0.00 | 0.15 | 0.00 | 94 | 1015.0 |
| 20260502114129 | 37 | 326 | 5.0 | 13.0 | 0.00 | 0.15 | 0.00 | 94 | 1014.9 |
| 20260502113629 | 37 | 304 | 4.0 | 13.0 | 0.00 | 0.15 | 0.00 | 94 | 1015.0 |
| 20260502113130 | 37 | 313 | 4.0 | 10.0 | 0.00 | 0.15 | 0.00 | 94 | 1015.0 |
| 20260502112628 | 36 | 287 | 4.0 | 10.0 | 0.00 | 0.15 | 0.00 | 94 | 1014.9 |
| 20260502112129 | 36 | 355 | 3.0 | 9.0 | 0.00 | 0.15 | 0.00 | 94 | 1014.7 |
| 20260502111629 | 36 | 333 | 3.0 | 9.0 | 0.00 | 0.15 | 0.00 | 94 | 1014.7 |
| 20260502111129 | 36 | 286 | 4.0 | 13.0 | 0.00 | 0.15 | 0.00 | 94 | 1014.7 |
| 20260502110629 | 36 | 309 | 4.0 | 13.0 | 0.00 | 0.15 | 0.00 | 94 | 1014.6 |
| 20260502110128 | 36 | 298 | 4.0 | 11.0 | 0.00 | 0.15 | 0.00 | 94 | 1014.6 |
| 20260502105629 | 36 | 295 | 4.0 | 11.0 | 0.00 | 0.15 | 0.00 | 94 | 1014.6 |
| 20260502105129 | 37 | 268 | 4.0 | 12.0 | 0.00 | 0.15 | 0.00 | 95 | 1014.4 |
| 20260502104629 | 37 | 292 | 4.0 | 12.0 | 0.00 | 0.15 | 0.00 | 95 | 1014.3 |
| 20260502104129 | 37 | 316 | 3.0 | 11.0 | 0.00 | 0.15 | 0.00 | 95 | 1014.3 |
| 20260502103629 | 37 | 320 | 2.0 | 9.0 | 0.00 | 0.15 | 0.00 | 95 | 1014.3 |
| 20260502103128 | 38 | 269 | 2.0 | 7.0 | 0.00 | 0.15 | 0.00 | 95 | 1014.3 |
| 20260502102629 | 38 | 273 | 2.0 | 8.0 | 0.00 | 0.15 | 0.00 | 95 | 1014.1 |
| 20260502102356 | 38 | 302 | 2.0 | 8.0 | 0.00 | 0.15 | 0.00 | 95 | 1014.1 |
| 20260502101629 | 38 | 268 | 2.0 | 11.0 | 0.00 | 0.15 | 0.00 | 95 | 1014.1 |
| 20260502101129 | 38 | 292 | 2.0 | 11.0 | 0.00 | 0.15 | 0.00 | 95 | 1014.1 |
| 20260502100629 | 38 | 250 | 2.0 | 7.0 | 0.00 | 0.15 | 0.00 | 95 | 1014.1 |
| 20260502100129 | 38 | 250 | 2.0 | 7.0 | 0.00 | 0.15 | 0.00 | 95 | 1014.0 |
| 20260502091129 | 38 | 304 | 1.0 | 8.0 | 0.00 | 0.15 | 0.00 | 95 | 1013.4 |
| 20260502090629 | 38 | 267 | 1.0 | 4.0 | 0.00 | 0.15 | 0.00 | 95 | 1013.3 |
| 20260502090354 | 38 | 267 | 2.0 | 6.0 | 0.00 | 0.15 | 0.00 | 95 | 1013.3 |
| 20260502071129 | 39 | 53 | 1.0 | 3.0 | 0.00 | 0.15 | 0.00 | 95 | 1012.9 |
| 20260502070629 | 39 | 53 | 1.0 | 4.0 | 0.00 | 0.15 | 0.00 | 95 | 1013.0 |
| 20260502070130 | 39 | 53 | 1.0 | 4.0 | 0.00 | 0.15 | 0.00 | 95 | 1013.0 |
| 20260502065628 | 39 | 55 | 1.0 | 5.0 | 0.00 | 0.15 | 0.00 | 95 | 1013.0 |
| 20260502065350 | 39 | 55 | 1.0 | 5.0 | 0.00 | 0.15 | 0.00 | 95 | 1013.0 |
| 20260502064629 | 39 | 55 | 2.0 | 4.0 | 0.00 | 0.15 | 0.00 | 95 | 1013.2 |
| 20260502064129 | 39 | 55 | 2.0 | 4.0 | 0.00 | 0.15 | 0.00 | 95 | 1013.1 |
| 20260502063629 | 38 | 55 | 2.0 | 4.0 | 0.00 | 0.15 | 0.00 | 95 | 1013.1 |
| 20260502063129 | 38 | 55 | 1.0 | 4.0 | 0.00 | 0.15 | 0.00 | 95 | 1013.0 |
| 20260502062848 | 38 | 55 | 0.0 | 2.0 | 0.00 | 0.15 | 0.00 | 94 | 1013.2 |
| 20260502061631 | 38 | 55 | 0.0 | 0.0 | 0.00 | 0.15 | 0.00 | 94 | 1012.9 |
| 20260502061129 | 38 | 55 | 0.0 | 0.0 | 0.00 | 0.15 | 0.00 | 94 | 1012.7 |
| 20260502060629 | 39 | 55 | 0.0 | 0.0 | 0.00 | 0.15 | 0.00 | 94 | 1012.8 |
| 20260502055630 | 39 | 55 | 0.0 | 0.0 | 0.00 | 0.15 | 0.00 | 94 | 1012.8 |
| 20260502055128 | 39 | 55 | 0.0 | 0.0 | 0.00 | 0.15 | 0.00 | 94 | 1012.9 |
| 20260502054629 | 39 | 55 | 0.0 | 0.0 | 0.00 | 0.15 | 0.00 | 95 | 1012.7 |
| 20260502054129 | 39 | 55 | 0.0 | 0.0 | 0.00 | 0.15 | 0.00 | 94 | 1013.0 |
| 20260502053628 | 39 | 55 | 0.0 | 0.0 | 0.00 | 0.15 | 0.00 | 94 | 1013.1 |
| 20260502053129 | 39 | 55 | 0.0 | 0.0 | 0.00 | 0.15 | 0.00 | 94 | 1013.1 |
| 20260502052628 | 39 | 55 | 0.0 | 0.0 | 0.00 | 0.15 | 0.00 | 94 | 1013.2 |
| 20260502052128 | 39 | 55 | 0.0 | 0.0 | 0.00 | 0.15 | 0.00 | 94 | 1013.3 |
| 20260502051629 | 39 | 55 | 0.0 | 0.0 | 0.00 | 0.15 | 0.00 | 94 | 1013.4 |
| 20260502051128 | 39 | 55 | 0.0 | 0.0 | 0.00 | 0.15 | 0.00 | 94 | 1013.4 |
| 20260502050630 | 39 | 55 | 0.0 | 0.0 | 0.00 | 0.15 | 0.00 | 94 | 1013.4 |
| 20260502050129 | 39 | 55 | 0.0 | 0.0 | 0.00 | 0.15 | 0.00 | 94 | 1013.4 |
| 20260502045628 | 39 | 55 | 0.0 | 0.0 | 0.00 | 0.15 | 0.00 | 94 | 1013.4 |
| 20260502045129 | 39 | 55 | 0.0 | 0.0 | 0.01 | 0.15 | 0.00 | 94 | 1013.3 |
| 20260502044628 | 39 | 55 | 0.0 | 0.0 | 0.01 | 0.15 | 0.00 | 94 | 1013.3 |
| 20260502044129 | 39 | 55 | 0.0 | 0.0 | 0.01 | 0.15 | 0.00 | 94 | 1013.3 |
| 20260502043628 | 39 | 55 | 0.0 | 0.0 | 0.01 | 0.15 | 0.00 | 94 | 1013.2 |
| 20260502043129 | 39 | 55 | 0.0 | 0.0 | 0.01 | 0.15 | 0.00 | 94 | 1013.3 |
| 20260502042633 | 39 | 55 | 0.0 | 0.0 | 0.01 | 0.15 | 0.00 | 94 | 1013.3 |
| 20260502042130 | 39 | 55 | 0.0 | 0.0 | 0.01 | 0.15 | 0.00 | 94 | 1013.3 |
| 20260502041628 | 39 | 55 | 0.0 | 0.0 | 0.01 | 0.15 | 0.00 | 94 | 1013.3 |
| 20260502041353 | 39 | 55 | 0.0 | 0.0 | 0.01 | 0.15 | 0.00 | 94 | 1013.3 |
| 20260502040855 | 39 | 55 | 0.0 | 0.0 | 0.01 | 0.15 | 0.00 | 94 | 1013.3 |
| 20260502040540 | 39 | 55 | 0.0 | 0.0 | 0.01 | 0.15 | 0.00 | 94 | 1013.3 |
| 20260502035628 | 39 | 55 | 0.0 | 0.0 | 0.01 | 0.15 | 0.15 | 94 | 1013.4 |
| 20260502035129 | 39 | 55 | 0.0 | 0.0 | 0.00 | 0.14 | 0.14 | 94 | 1013.3 |
| 20260502034629 | 39 | 55 | 0.0 | 0.0 | 0.00 | 0.14 | 0.14 | 94 | 1013.3 |
| 20260502034128 | 39 | 55 | 0.0 | 0.0 | 0.00 | 0.14 | 0.14 | 94 | 1013.2 |
| 20260502033629 | 39 | 55 | 0.0 | 0.0 | 0.00 | 0.14 | 0.14 | 94 | 1013.1 |
| 20260502033353 | 39 | 55 | 0.0 | 0.0 | 0.00 | 0.14 | 0.14 | 94 | 1013.1 |
| 20260502032630 | 39 | 55 | 0.0 | 1.0 | 0.00 | 0.14 | 0.14 | 94 | 1013.2 |
| 20260502032129 | 39 | 55 | 0.0 | 2.0 | 0.01 | 0.14 | 0.14 | 94 | 1013.2 |
| 20260502031628 | 39 | 55 | 0.0 | 2.0 | 0.01 | 0.14 | 0.14 | 94 | 1013.1 |
| 20260502031129 | 39 | 55 | 1.0 | 4.0 | 0.01 | 0.14 | 0.14 | 94 | 1013.1 |
| 20260502030628 | 39 | 55 | 2.0 | 5.0 | 0.01 | 0.14 | 0.14 | 94 | 1013.1 |
| 20260502030129 | 39 | 55 | 2.0 | 5.0 | 0.01 | 0.14 | 0.14 | 94 | 1013.0 |
| 20260502025628 | 39 | 55 | 2.0 | 4.0 | 0.01 | 0.14 | 0.14 | 94 | 1013.1 |
| 20260502025129 | 39 | 55 | 2.0 | 5.0 | 0.01 | 0.14 | 0.14 | 94 | 1013.1 |
| 20260502024629 | 39 | 55 | 3.0 | 5.0 | 0.02 | 0.14 | 0.14 | 94 | 1013.0 |
| 20260502024128 | 39 | 55 | 3.0 | 4.0 | 0.02 | 0.14 | 0.14 | 94 | 1013.1 |
| 20260502023629 | 39 | 55 | 2.0 | 4.0 | 0.02 | 0.14 | 0.14 | 94 | 1013.1 |
| 20260502023129 | 39 | 55 | 2.0 | 4.0 | 0.02 | 0.14 | 0.14 | 93 | 1013.0 |
| 20260502022851 | 39 | 55 | 2.0 | 5.0 | 0.03 | 0.14 | 0.14 | 93 | 1013.0 |
| 20260502022128 | 39 | 55 | 2.0 | 5.0 | 0.03 | 0.13 | 0.13 | 93 | 1013.0 |
| 20260502021629 | 39 | 55 | 3.0 | 6.0 | 0.03 | 0.13 | 0.13 | 93 | 1013.0 |
| 20260502021128 | 39 | 55 | 2.0 | 6.0 | 0.04 | 0.13 | 0.13 | 93 | 1013.0 |
| 20260502020629 | 39 | 55 | 2.0 | 5.0 | 0.04 | 0.13 | 0.13 | 93 | 1012.9 |
| 20260502020129 | 39 | 55 | 3.0 | 6.0 | 0.05 | 0.13 | 0.13 | 93 | 1012.9 |
| 20260502015628 | 39 | 55 | 3.0 | 6.0 | 0.05 | 0.13 | 0.13 | 93 | 1012.8 |